This is the latest recevied weather packets stored in our database for station/object N9JXN-13. If no packets are shown the sender has not sent any weather packets the latest 10 day(s).
| Time | Temp. | Humidity | Pressure | Rain* | Wind** | Luminosity | Snow |
|---|---|---|---|---|---|---|---|
| 1777435217 | 12.78° C | 91% | 1012 hPa | 0 mm | - | 0 W/m² | - |
| 1777433716 | 12.78° C | 91% | 1012.5 hPa | 0 mm | - | 0 W/m² | - |
| 1777432516 | 12.78° C | 90% | 1012.9 hPa | 0 mm | - | 0 W/m² | - |
| 1777432217 | 12.78° C | 90% | 1012.9 hPa | 0 mm | - | 0 W/m² | - |
| 1777431317 | 13.33° C | 89% | 1013 hPa | 0 mm | - | 0 W/m² | - |
| 1777422916 | 15° C | 76% | 1011.9 hPa | 0 mm | - | 7 W/m² | - |
| 1777419916 | 16.67° C | 67% | 1012.1 hPa | 0 mm | - | 67 W/m² | - |
| 1777419616 | 16.67° C | 67% | 1012.2 hPa | 0 mm | - | 53 W/m² | - |
| 1777416616 | 17.22° C | 63% | 1012.6 hPa | 0 mm | - | 142 W/m² | - |
| 1777416316 | 17.22° C | 63% | 1013 hPa | 0 mm | - | 134 W/m² | - |
| 1777415117 | 16.67° C | 65% | 1012.1 hPa | 0 mm | - | 127 W/m² | - |
| 1777413316 | 17.22° C | 64% | 1012.2 hPa | 0 mm | - | 113 W/m² | - |
| 1777413016 | 16.67° C | 65% | 1012.3 hPa | 0 mm | - | 144 W/m² | - |
| 1777411816 | 17.22° C | 64% | 1012.4 hPa | 0 mm | - | 527 W/m² | - |
| 1777409416 | 17.78° C | 62% | 1013.2 hPa | 0 mm | - | 673 W/m² | - |
| 1777409116 | 17.22° C | 62% | 1013.1 hPa | 0 mm | - | 722 W/m² | - |
| 1777408217 | 17.22° C | 65% | 1013.1 hPa | 0 mm | - | 719 W/m² | - |
| 1777407616 | 16.67° C | 64% | 1013.3 hPa | 0 mm | - | 745 W/m² | - |
| 1777404016 | 16.67° C | 64% | 1013.7 hPa | 0 mm | - | 772 W/m² | - |
| 1777403716 | 16.67° C | 66% | 1013.9 hPa | 0 mm | - | 921 W/m² | - |
| 1777401017 | 15.56° C | 67% | 1014.5 hPa | 0 mm | - | 977 W/m² | - |
| 1777399816 | 15.56° C | 66% | 1014.7 hPa | 0 mm | - | 1007 W/m² | - |
| 1777399516 | 15.56° C | 70% | 1014.8 hPa | 0 mm | - | 1062 W/m² | - |
| 1777397716 | 13.89° C | 71% | 1015.3 hPa | 0 mm | - | 541 W/m² | - |
| 1777394116 | 12.78° C | 75% | 1015 hPa | 0 mm | - | 418 W/m² | - |
* Rain latest hour (hover to see other rain measurements)
** Current wind speed in m/s (hover to see current wind gust speed)